START_TIME,STEP,MOV.,AL01,t_acc.,AL02,t_acc.,E37,t_acc.,H21,t_acc.
1979-07-28 21:00:33.460 ,0,0,0.,24.0,0.,24.0,2.,24.0,0.,24.0
1979-07-28 21:00:57.460 ,0,1,0.,24.0,0.,24.0,4.,24.0,0.,24.0
1979-07-28 21:01:21.460 ,0,0,0.,24.0,0.,24.0,3.,24.0,0.,24.0
1979-07-28 21:01:45.460 ,1,1,0.,24.0,0.,24.0,2.,24.0,0.,24.0
1979-07-28 21:02:09.460 ,1,0,0.,24.0,0.,24.0,0.,24.0,0.,24.0
1979-07-28 21:02:33.460 ,2,1,0.,24.0,0.,24.0,1.,24.0,0.,24.0
1979-07-28 21:02:57.460 ,2,0,0.,24.0,0.,24.0,0.,24.0,0.,24.0
1979-07-28 21:03:21.460 ,3,1,0.,24.0,0.,24.0,3.,24.0,0.,24.0
1979-07-28 21:03:45.460 ,3,0,0.,24.0,0.,24.0,5.,24.0,0.,24.0
1979-07-28 21:04:09.460 ,4,1,1.,24.0,0.,24.0,1.,24.0,0.,24.0
1979-07-28 21:04:33.460 ,4,0,0.,24.0,0.,24.0,0.,24.0,0.,24.0
1979-07-28 21:04:57.460 ,5,1,0.,24.0,0.,24.0,1.,24.0,0.,24.0
1979-07-28 21:05:21.460 ,5,0,0.,24.0,0.,24.0,4.,24.0,0.,24.0
1979-07-28 21:05:45.460 ,6,1,0.,24.0,0.,24.0,3.,24.0,0.,24.0
1979-07-28 21:06:09.460 ,6,0,0.,24.0,0.,24.0,0.,24.0,0.,24.0
1979-07-28 21:06:33.460 ,7,0,7.,24.0,0.,24.0,5.,24.0,0.,24.0
1979-07-28 21:06:57.460 ,7,0,40.,24.0,0.,24.0,1.,24.0,0.,24.0
1979-07-28 21:07:21.460 ,5,1,16.,24.0,0.,24.0,1.,24.0,0.,24.0
1979-07-28 21:07:45.460 ,1,1,0.,24.0,0.,24.0,0.,24.0,0.,24.0
1979-07-28 21:08:09.460 ,2,1,0.,24.0,0.,24.0,0.,24.0,0.,24.0
1979-07-28 21:08:33.460 ,6,1,0.,24.0,0.,24.0,6.,24.0,0.,24.0
1979-07-28 21:08:57.460 ,5,1,17.,24.0,0.,24.0,2.,24.0,0.,24.0
1979-07-28 21:09:21.460 ,1,1,0.,24.0,0.,24.0,2.,24.0,0.,24.0
1979-07-28 21:09:45.460 ,2,1,0.,24.0,0.,24.0,3.,24.0,0.,24.0
1979-07-28 21:10:09.460 ,6,1,0.,24.0,0.,24.0,2.,24.0,0.,24.0
1979-07-28 21:10:33.460 ,5,1,15.,24.0,0.,24.0,2.,24.0,0.,24.0
1979-07-28 21:10:57.460 ,1,1,0.,24.0,1.,24.0,0.,24.0,0.,24.0
1979-07-28 21:11:21.460 ,2,1,1.,24.0,0.,24.0,2.,24.0,0.,24.0
1979-07-28 21:11:45.460 ,6,1,0.,24.0,0.,24.0,1.,24.0,0.,24.0
1979-07-28 21:12:09.460 ,5,1,14.,24.0,0.,24.0,3.,24.0,0.,24.0
1979-07-28 21:12:33.460 ,1,1,0.,24.0,0.,24.0,4.,24.0,0.,24.0
1979-07-28 21:12:57.460 ,2,1,0.,24.0,0.,24.0,2.,24.0,0.,24.0
1979-07-28 21:13:21.460 ,6,1,0.,24.0,0.,24.0,1.,24.0,0.,24.0
1979-07-28 21:13:45.460 ,5,1,21.,24.0,0.,24.0,1.,24.0,0.,24.0
1979-07-28 21:14:09.460 ,1,1,0.,24.0,0.,24.0,2.,24.0,0.,24.0
1979-07-28 21:14:33.460 ,0,0,0.,24.0,0.,24.0,3.,24.0,0.,24.0
1979-07-28 21:14:57.460 ,0,0,0.,24.0,0.,24.0,1.,24.0,0.,24.0
1979-07-28 21:15:21.460 ,5,1,9.,24.0,0.,24.0,2.,24.0,0.,24.0
1979-07-28 21:15:45.460 ,1,1,0.,24.0,0.,24.0,1.,24.0,0.,24.0
1979-07-28 21:16:09.460 ,2,1,0.,24.0,0.,24.0,0.,24.0,0.,24.0
1979-07-28 21:16:33.460 ,6,1,0.,24.0,0.,24.0,5.,24.0,0.,24.0
1979-07-28 21:16:57.460 ,5,1,20.,24.0,0.,24.0,0.,24.0,0.,24.0
1979-07-28 21:17:21.460 ,1,1,0.,24.0,0.,24.0,1.,24.0,0.,24.0
1979-07-28 21:17:45.460 ,0,0,0.,24.0,0.,24.0,1.,24.0,0.,24.0
1979-07-28 21:18:09.460 ,0,0,0.,24.0,0.,24.0,4.,24.0,0.,24.0
1979-07-28 21:18:33.460 ,5,1,16.,24.0,0.,24.0,1.,24.0,0.,24.0
1979-07-28 21:18:57.460 ,5,0,0.,24.0,0.,24.0,3.,24.0,0.,24.0
1979-07-28 21:19:21.460 ,4,1,0.,24.0,0.,24.0,0.,24.0,0.,24.0
1979-07-28 21:19:45.460 ,4,0,0.,24.0,0.,24.0,0.,24.0,0.,24.0
1979-07-28 21:20:09.460 ,3,1,0.,24.0,0.,24.0,4.,24.0,0.,24.0
1979-07-28 21:20:33.460 ,3,0,0.,24.0,0.,24.0,1.,24.0,0.,24.0
1979-07-28 21:20:57.460 ,2,1,1.,24.0,0.,24.0,2.,24.0,0.,24.0
1979-07-28 21:21:21.460 ,2,0,0.,24.0,0.,24.0,1.,24.0,0.,24.0
1979-07-28 21:21:45.460 ,1,1,0.,24.0,1.,24.0,1.,24.0,0.,24.0
1979-07-28 21:22:09.460 ,1,0,0.,24.0,0.,24.0,2.,24.0,0.,24.0
1979-07-28 21:22:33.460 ,0,1,0.,24.0,0.,24.0,1.,24.0,0.,24.0
1979-07-28 21:22:57.460 ,0,0,0.,24.0,0.,24.0,3.,24.0,0.,24.0
1979-07-28 21:23:21.460 ,0,1,0.,24.0,0.,24.0,4.,24.0,0.,24.0
1979-07-28 21:23:45.460 ,0,0,0.,24.0,0.,24.0,1.,24.0,0.,24.0
1979-07-28 21:24:09.460 ,1,1,1.,24.0,0.,24.0,4.,24.0,0.,24.0
1979-07-28 21:24:33.460 ,1,0,0.,24.0,0.,24.0,4.,24.0,0.,24.0
1979-07-28 21:24:57.460 ,2,1,0.,24.0,0.,24.0,1.,24.0,0.,24.0
1979-07-28 21:25:21.460 ,2,0,0.,24.0,0.,24.0,2.,24.0,0.,24.0
1979-07-28 21:25:45.460 ,3,1,1.,24.0,0.,24.0,1.,24.0,0.,24.0
1979-07-28 21:26:09.460 ,3,0,0.,24.0,0.,24.0,0.,24.0,0.,24.0
1979-07-28 21:26:33.460 ,4,1,0.,24.0,0.,24.0,5.,24.0,0.,24.0
1979-07-28 21:26:57.460 ,4,0,0.,24.0,0.,24.0,2.,24.0,0.,24.0
1979-07-28 21:27:21.460 ,5,1,0.,24.0,1.,24.0,2.,24.0,0.,24.0
1979-07-28 21:27:45.460 ,5,0,0.,24.0,0.,24.0,5.,24.0,0.,24.0
1979-07-28 21:28:09.460 ,6,1,0.,24.0,0.,24.0,2.,24.0,0.,24.0
1979-07-28 21:28:33.460 ,6,0,0.,24.0,0.,24.0,1.,24.0,0.,24.0
1979-07-28 21:28:57.460 ,7,1,14.,24.0,0.,24.0,0.,24.0,0.,24.0
1979-07-28 21:29:21.460 ,7,0,26.,24.0,0.,24.0,2.,24.0,0.,24.0
1979-07-28 21:29:45.460 ,7,1,34.,24.0,0.,24.0,3.,24.0,0.,24.0
1979-07-28 21:30:09.460 ,7,0,32.,24.0,0.,24.0,1.,24.0,0.,24.0
1979-07-28 21:30:33.460 ,6,1,19.,24.0,0.,24.0,4.,24.0,0.,24.0
1979-07-28 21:30:57.460 ,6,0,0.,24.0,0.,24.0,0.,24.0,0.,24.0
1979-07-28 21:31:21.460 ,5,1,0.,24.0,0.,24.0,2.,24.0,0.,24.0
1979-07-28 21:31:45.460 ,5,0,0.,24.0,0.,24.0,2.,24.0,0.,24.0
1979-07-28 21:32:09.460 ,4,1,0.,24.0,0.,24.0,0.,24.0,0.,24.0
1979-07-28 21:32:33.460 ,4,0,0.,24.0,0.,24.0,2.,24.0,0.,24.0
1979-07-28 21:32:57.460 ,3,1,0.,24.0,0.,24.0,2.,24.0,0.,24.0
1979-07-28 21:33:21.460 ,3,0,0.,24.0,0.,24.0,3.,24.0,0.,24.0
1979-07-28 21:33:45.460 ,2,1,0.,24.0,0.,24.0,1.,24.0,0.,24.0
1979-07-28 21:34:09.460 ,2,0,0.,24.0,0.,24.0,1.,24.0,0.,24.0
1979-07-28 21:34:33.460 ,1,1,1.,24.0,0.,24.0,3.,24.0,0.,24.0
1979-07-28 21:34:57.460 ,1,0,0.,24.0,0.,24.0,1.,24.0,0.,24.0
1979-07-28 21:35:21.460 ,0,1,0.,24.0,0.,24.0,0.,24.0,0.,24.0
1979-07-28 21:35:45.460 ,0,0,0.,24.0,0.,24.0,2.,24.0,0.,24.0
1979-07-28 21:36:09.460 ,0,1,0.,24.0,0.,24.0,1.,24.0,0.,24.0
1979-07-28 21:36:33.460 ,0,0,0.,24.0,0.,24.0,3.,24.0,0.,24.0
1979-07-28 21:36:57.460 ,1,1,1.,24.0,0.,24.0,3.,24.0,0.,24.0
1979-07-28 21:37:21.460 ,1,0,0.,24.0,0.,24.0,1.,24.0,0.,24.0
1979-07-28 21:37:45.460 ,2,1,0.,24.0,0.,24.0,2.,24.0,0.,24.0
1979-07-28 21:38:09.460 ,2,0,0.,24.0,0.,24.0,1.,24.0,0.,24.0
1979-07-28 21:38:33.460 ,3,1,0.,24.0,0.,24.0,3.,24.0,0.,24.0
1979-07-28 21:38:57.460 ,3,0,0.,24.0,0.,24.0,0.,24.0,0.,24.0
1979-07-28 21:39:21.460 ,4,1,0.,24.0,0.,24.0,2.,24.0,0.,24.0
1979-07-28 21:39:45.460 ,4,0,0.,24.0,0.,24.0,0.,24.0,0.,24.0
1979-07-28 21:40:09.460 ,5,1,0.,24.0,0.,24.0,2.,24.0,0.,24.0
1979-07-28 21:40:33.460 ,5,0,0.,24.0,0.,24.0,2.,24.0,0.,24.0
1979-07-28 21:40:57.460 ,6,1,0.,24.0,0.,24.0,0.,24.0,0.,24.0
1979-07-28 21:41:21.460 ,6,0,0.,24.0,0.,24.0,3.,24.0,0.,24.0
1979-07-28 21:41:45.460 ,7,1,7.,24.0,0.,24.0,0.,24.0,0.,24.0
1979-07-28 21:42:09.460 ,7,0,33.,24.0,0.,24.0,1.,24.0,0.,24.0
1979-07-28 21:42:33.460 ,7,1,28.,24.0,0.,24.0,2.,24.0,0.,24.0
1979-07-28 21:42:57.460 ,7,0,26.,24.0,0.,24.0,3.,24.0,0.,24.0
1979-07-28 21:43:21.460 ,6,1,25.,24.0,0.,24.0,5.,24.0,0.,24.0
1979-07-28 21:43:45.460 ,6,0,1.,24.0,0.,24.0,1.,24.0,0.,24.0
1979-07-28 21:44:09.460 ,5,1,0.,24.0,0.,24.0,0.,24.0,0.,24.0
1979-07-28 21:44:33.460 ,5,0,0.,24.0,0.,24.0,2.,24.0,0.,24.0
1979-07-28 21:44:57.460 ,4,1,0.,24.0,0.,24.0,3.,24.0,0.,24.0
1979-07-28 21:45:21.460 ,4,0,0.,24.0,0.,24.0,2.,24.0,0.,24.0
1979-07-28 21:45:45.460 ,3,1,0.,24.0,0.,24.0,1.,24.0,0.,24.0
1979-07-28 21:46:09.460 ,3,0,0.,24.0,0.,24.0,0.,24.0,0.,24.0
1979-07-28 21:46:33.460 ,2,1,1.,24.0,0.,24.0,2.,24.0,0.,24.0
1979-07-28 21:46:57.460 ,2,0,0.,24.0,0.,24.0,2.,24.0,0.,24.0
1979-07-28 21:47:21.460 ,1,1,0.,24.0,0.,24.0,3.,24.0,0.,24.0
1979-07-28 21:47:45.460 ,1,0,0.,24.0,0.,24.0,1.,24.0,0.,24.0
1979-07-28 21:48:09.460 ,0,1,0.,24.0,0.,24.0,1.,24.0,0.,24.0
1979-07-28 21:48:33.460 ,0,0,0.,24.0,0.,24.0,2.,24.0,0.,24.0
1979-07-28 21:48:57.460 ,0,1,0.,24.0,0.,24.0,0.,24.0,0.,24.0
1979-07-28 21:49:21.460 ,0,0,0.,24.0,0.,24.0,4.,24.0,0.,24.0
1979-07-28 21:49:45.460 ,1,1,0.,24.0,0.,24.0,2.,24.0,0.,24.0
1979-07-28 21:50:09.460 ,1,0,0.,24.0,0.,24.0,1.,24.0,0.,24.0
1979-07-28 21:50:33.460 ,2,1,1.,24.0,0.,24.0,2.,24.0,0.,24.0
1979-07-28 21:50:57.460 ,2,0,0.,24.0,0.,24.0,0.,24.0,0.,24.0
1979-07-28 21:51:21.460 ,3,1,0.,24.0,0.,24.0,3.,24.0,0.,24.0
1979-07-28 21:51:45.460 ,3,0,0.,24.0,0.,24.0,2.,24.0,0.,24.0
1979-07-28 21:52:09.460 ,4,1,0.,24.0,0.,24.0,2.,24.0,0.,24.0
1979-07-28 21:52:33.460 ,4,0,1.,24.0,0.,24.0,0.,24.0,0.,24.0
1979-07-28 21:52:57.460 ,5,1,0.,24.0,0.,24.0,2.,24.0,0.,24.0
1979-07-28 21:53:21.460 ,5,0,0.,24.0,0.,24.0,2.,24.0,0.,24.0
1979-07-28 21:53:45.460 ,6,1,0.,24.0,0.,24.0,3.,24.0,0.,24.0
1979-07-28 21:54:09.460 ,6,0,0.,24.0,0.,24.0,2.,24.0,0.,24.0
1979-07-28 21:54:33.460 ,7,0,8.,24.0,0.,24.0,2.,24.0,0.,24.0
1979-07-28 21:54:57.460 ,7,0,30.,24.0,0.,24.0,2.,24.0,0.,24.0
1979-07-28 21:55:21.460 ,5,1,15.,24.0,0.,24.0,1.,24.0,0.,24.0
1979-07-28 21:55:45.460 ,1,1,0.,24.0,0.,24.0,2.,24.0,0.,24.0
1979-07-28 21:56:09.460 ,2,1,0.,24.0,0.,24.0,0.,24.0,0.,24.0
1979-07-28 21:56:33.460 ,6,1,0.,24.0,0.,24.0,1.,24.0,0.,24.0
1979-07-28 21:56:57.460 ,5,1,13.,24.0,0.,24.0,4.,24.0,0.,24.0
1979-07-28 21:57:21.460 ,1,1,0.,24.0,0.,24.0,3.,24.0,0.,24.0
1979-07-28 21:57:45.460 ,2,1,0.,24.0,1.,24.0,2.,24.0,0.,24.0
1979-07-28 21:58:09.460 ,6,1,0.,24.0,0.,24.0,1.,24.0,0.,24.0
1979-07-28 21:58:33.450 ,5,1,13.,24.0,0.,24.0,3.,24.0,0.,24.0
1979-07-28 21:58:57.450 ,1,1,0.,24.0,0.,24.0,2.,24.0,0.,24.0
1979-07-28 21:59:21.450 ,2,1,0.,24.0,1.,24.0,0.,24.0,0.,24.0
1979-07-28 21:59:45.450 ,6,1,0.,24.0,0.,24.0,2.,24.0,0.,24.0
1979-07-28 22:00:09.450 ,5,1,9.,24.0,0.,24.0,4.,24.0,0.,24.0
1979-07-28 22:00:33.450 ,1,1,0.,24.0,0.,24.0,3.,24.0,0.,24.0
1979-07-28 22:00:57.450 ,0,0,0.,24.0,0.,24.0,1.,24.0,0.,24.0
1979-07-28 22:01:21.450 ,0,0,,0,,0,,0,,0
1979-07-28 22:02:57.450 ,0,0,1.,24.0,0.,24.0,2.,24.0,0.,24.0
1979-07-28 22:03:21.450 ,5,1,15.,24.0,0.,24.0,5.,24.0,0.,24.0
1979-07-28 22:03:45.450 ,1,1,0.,24.0,0.,24.0,1.,24.0,0.,24.0
1979-07-28 22:04:09.450 ,2,1,0.,24.0,0.,24.0,5.,24.0,0.,24.0
1979-07-28 22:04:33.450 ,6,1,0.,24.0,0.,24.0,2.,24.0,0.,24.0
1979-07-28 22:04:57.450 ,5,1,15.,24.0,0.,24.0,1.,24.0,0.,24.0
1979-07-28 22:05:21.450 ,1,1,0.,24.0,0.,24.0,1.,24.0,0.,24.0
1979-07-28 22:05:45.450 ,0,0,0.,24.0,0.,24.0,0.,24.0,0.,24.0
1979-07-28 22:06:09.450 ,0,0,0.,24.0,0.,24.0,0.,24.0,0.,24.0
1979-07-28 22:06:33.450 ,5,1,8.,24.0,0.,24.0,1.,24.0,0.,24.0
1979-07-28 22:06:57.450 ,5,0,0.,24.0,0.,24.0,2.,24.0,0.,24.0
1979-07-28 22:07:21.450 ,4,1,0.,24.0,0.,24.0,2.,24.0,0.,24.0
1979-07-28 22:07:45.450 ,4,0,0.,24.0,0.,24.0,2.,24.0,0.,24.0
1979-07-28 22:08:09.450 ,3,1,0.,24.0,0.,24.0,3.,24.0,0.,24.0
1979-07-28 22:08:33.450 ,3,0,0.,24.0,0.,24.0,2.,24.0,0.,24.0
1979-07-28 22:08:57.450 ,2,1,0.,24.0,0.,24.0,3.,24.0,0.,24.0
1979-07-28 22:09:21.450 ,2,0,0.,24.0,0.,24.0,0.,24.0,0.,24.0
1979-07-28 22:09:45.450 ,1,1,0.,24.0,0.,24.0,2.,24.0,0.,24.0
1979-07-28 22:10:09.450 ,1,0,0.,24.0,0.,24.0,3.,24.0,0.,24.0
1979-07-28 22:10:33.450 ,0,1,0.,24.0,0.,24.0,3.,24.0,0.,24.0
1979-07-28 22:10:57.450 ,0,0,0.,24.0,0.,24.0,1.,24.0,0.,24.0
1979-07-28 22:11:21.450 ,0,1,0.,24.0,0.,24.0,2.,24.0,0.,24.0
1979-07-28 22:11:45.450 ,0,0,1.,24.0,0.,24.0,0.,24.0,0.,24.0
1979-07-28 22:12:09.450 ,1,1,0.,24.0,0.,24.0,1.,24.0,0.,24.0
1979-07-28 22:12:33.450 ,1,0,0.,24.0,0.,24.0,1.,24.0,0.,24.0
1979-07-28 22:12:57.450 ,2,1,0.,24.0,0.,24.0,2.,24.0,0.,24.0
1979-07-28 22:13:21.450 ,2,0,0.,24.0,0.,24.0,1.,24.0,0.,24.0
1979-07-28 22:13:45.450 ,3,1,0.,24.0,0.,24.0,1.,24.0,0.,24.0
1979-07-28 22:14:09.450 ,3,0,0.,24.0,1.,24.0,1.,24.0,0.,24.0
1979-07-28 22:14:33.450 ,4,1,0.,24.0,0.,24.0,2.,24.0,0.,24.0
1979-07-28 22:14:57.450 ,4,0,0.,24.0,0.,24.0,2.,24.0,0.,24.0
1979-07-28 22:15:21.450 ,5,1,0.,24.0,0.,24.0,4.,24.0,0.,24.0
1979-07-28 22:15:45.450 ,5,0,0.,24.0,0.,24.0,1.,24.0,0.,24.0
1979-07-28 22:16:09.450 ,6,1,0.,24.0,0.,24.0,4.,24.0,0.,24.0
1979-07-28 22:16:33.450 ,6,0,0.,24.0,0.,24.0,0.,24.0,0.,24.0
1979-07-28 22:16:57.450 ,7,1,6.,24.0,0.,24.0,3.,24.0,0.,24.0
1979-07-28 22:17:21.450 ,7,0,31.,24.0,0.,24.0,4.,24.0,0.,24.0
1979-07-28 22:17:45.450 ,7,1,37.,24.0,0.,24.0,1.,24.0,0.,24.0
1979-07-28 22:18:09.450 ,7,0,25.,24.0,0.,24.0,0.,24.0,0.,24.0
1979-07-28 22:18:33.450 ,6,1,21.,24.0,0.,24.0,0.,24.0,0.,24.0
1979-07-28 22:18:57.450 ,6,0,0.,24.0,0.,24.0,2.,24.0,0.,24.0
1979-07-28 22:19:21.450 ,5,1,0.,24.0,0.,24.0,2.,24.0,0.,24.0
1979-07-28 22:19:45.450 ,5,0,0.,24.0,0.,24.0,1.,24.0,0.,24.0
1979-07-28 22:20:09.450 ,4,1,0.,24.0,0.,24.0,3.,24.0,0.,24.0
1979-07-28 22:20:33.450 ,4,0,0.,24.0,1.,24.0,3.,24.0,0.,24.0
1979-07-28 22:20:57.450 ,3,1,0.,24.0,0.,24.0,1.,24.0,0.,24.0
1979-07-28 22:21:21.450 ,3,0,0.,24.0,0.,24.0,3.,24.0,0.,24.0
1979-07-28 22:21:45.450 ,2,1,0.,24.0,0.,24.0,1.,24.0,0.,24.0
1979-07-28 22:22:09.450 ,2,0,0.,24.0,0.,24.0,3.,24.0,0.,24.0
1979-07-28 22:22:33.450 ,1,1,0.,24.0,0.,24.0,1.,24.0,0.,24.0
1979-07-28 22:22:57.450 ,1,0,0.,24.0,0.,24.0,2.,24.0,0.,24.0
1979-07-28 22:23:21.450 ,0,1,0.,24.0,0.,24.0,0.,24.0,0.,24.0
1979-07-28 22:23:45.450 ,0,0,0.,24.0,0.,24.0,2.,24.0,0.,24.0
1979-07-28 22:24:09.450 ,0,1,0.,24.0,0.,24.0,0.,24.0,0.,24.0
1979-07-28 22:24:33.450 ,0,0,0.,24.0,0.,24.0,1.,24.0,0.,24.0
1979-07-28 22:24:57.450 ,1,1,1.,24.0,0.,24.0,2.,24.0,0.,24.0
1979-07-28 22:25:21.450 ,1,0,0.,24.0,0.,24.0,0.,24.0,0.,24.0
1979-07-28 22:25:45.450 ,2,1,1.,24.0,0.,24.0,4.,24.0,0.,24.0
1979-07-28 22:26:09.450 ,2,0,0.,24.0,0.,24.0,2.,24.0,0.,24.0
1979-07-28 22:26:33.450 ,3,1,0.,24.0,0.,24.0,1.,24.0,0.,24.0
1979-07-28 22:26:57.450 ,3,0,0.,24.0,0.,24.0,1.,24.0,0.,24.0
1979-07-28 22:27:21.450 ,4,1,0.,24.0,0.,24.0,1.,24.0,0.,24.0
1979-07-28 22:27:45.450 ,4,0,0.,24.0,0.,24.0,1.,24.0,0.,24.0
1979-07-28 22:28:09.450 ,5,1,0.,24.0,0.,24.0,1.,24.0,0.,24.0
1979-07-28 22:28:33.450 ,5,0,1.,24.0,0.,24.0,2.,24.0,0.,24.0
1979-07-28 22:28:57.450 ,6,1,0.,24.0,0.,24.0,1.,24.0,0.,24.0
1979-07-28 22:29:21.450 ,6,0,0.,24.0,0.,24.0,0.,24.0,0.,24.0
1979-07-28 22:29:45.450 ,7,1,8.,24.0,0.,24.0,6.,24.0,0.,24.0
1979-07-28 22:30:09.450 ,7,0,33.,24.0,0.,24.0,2.,24.0,0.,24.0
1979-07-28 22:30:33.450 ,7,1,39.,24.0,0.,24.0,1.,24.0,0.,24.0
1979-07-28 22:30:57.450 ,7,0,34.,24.0,0.,24.0,2.,24.0,0.,24.0
1979-07-28 22:31:21.450 ,6,1,28.,24.0,0.,24.0,2.,24.0,0.,24.0
1979-07-28 22:31:45.450 ,6,0,0.,24.0,0.,24.0,2.,24.0,0.,24.0
1979-07-28 22:32:09.450 ,5,1,0.,24.0,0.,24.0,1.,24.0,0.,24.0
1979-07-28 22:32:33.450 ,5,0,0.,24.0,0.,24.0,6.,24.0,0.,24.0
1979-07-28 22:32:57.450 ,4,1,0.,24.0,0.,24.0,0.,24.0,0.,24.0
1979-07-28 22:33:21.450 ,4,0,1.,24.0,0.,24.0,2.,24.0,0.,24.0
1979-07-28 22:33:45.450 ,3,1,0.,24.0,0.,24.0,3.,24.0,0.,24.0
1979-07-28 22:34:09.450 ,3,0,0.,24.0,0.,24.0,0.,24.0,0.,24.0
1979-07-28 22:34:33.450 ,2,1,0.,24.0,0.,24.0,2.,24.0,0.,24.0
1979-07-28 22:34:57.450 ,2,0,0.,24.0,0.,24.0,3.,24.0,0.,24.0
1979-07-28 22:35:21.450 ,1,1,0.,24.0,0.,24.0,2.,24.0,0.,24.0
1979-07-28 22:35:45.450 ,1,0,0.,24.0,0.,24.0,3.,24.0,0.,24.0
1979-07-28 22:36:09.450 ,0,1,0.,24.0,0.,24.0,4.,24.0,0.,24.0
1979-07-28 22:36:33.450 ,0,0,0.,24.0,0.,24.0,3.,24.0,0.,24.0
1979-07-28 22:36:57.450 ,0,1,0.,24.0,0.,24.0,1.,24.0,0.,24.0
1979-07-28 22:37:21.450 ,0,0,0.,24.0,0.,24.0,1.,24.0,0.,24.0
1979-07-28 22:37:45.450 ,1,1,0.,24.0,0.,24.0,3.,24.0,0.,24.0
1979-07-28 22:38:09.450 ,1,0,0.,24.0,0.,24.0,0.,24.0,0.,24.0
1979-07-28 22:38:33.450 ,2,1,0.,24.0,0.,24.0,3.,24.0,0.,24.0
1979-07-28 22:38:57.450 ,2,0,0.,24.0,0.,24.0,2.,24.0,0.,24.0
1979-07-28 22:39:21.450 ,3,1,0.,24.0,0.,24.0,2.,24.0,0.,24.0
1979-07-28 22:39:45.450 ,3,0,0.,24.0,0.,24.0,2.,24.0,0.,24.0
1979-07-28 22:40:09.450 ,4,1,0.,24.0,0.,24.0,4.,24.0,0.,24.0
1979-07-28 22:40:33.450 ,4,0,0.,24.0,0.,24.0,2.,24.0,0.,24.0
1979-07-28 22:40:57.450 ,5,1,0.,24.0,0.,24.0,1.,24.0,0.,24.0
1979-07-28 22:41:21.450 ,5,0,0.,24.0,0.,24.0,2.,24.0,0.,24.0
1979-07-28 22:41:45.450 ,6,1,0.,24.0,0.,24.0,1.,24.0,0.,24.0
1979-07-28 22:42:09.450 ,6,0,0.,24.0,0.,24.0,3.,24.0,0.,24.0
1979-07-28 22:42:33.450 ,7,0,10.,24.0,0.,24.0,2.,24.0,0.,24.0
1979-07-28 22:42:57.450 ,7,0,30.,24.0,0.,24.0,1.,24.0,0.,24.0
1979-07-28 22:43:21.450 ,5,1,17.,24.0,0.,24.0,2.,24.0,0.,24.0
1979-07-28 22:43:45.450 ,1,1,0.,24.0,0.,24.0,2.,24.0,0.,24.0
1979-07-28 22:44:09.450 ,2,1,0.,24.0,0.,24.0,3.,24.0,0.,24.0
1979-07-28 22:44:33.450 ,6,1,0.,24.0,0.,24.0,1.,24.0,0.,24.0
1979-07-28 22:44:57.450 ,5,1,17.,24.0,0.,24.0,1.,24.0,0.,24.0
1979-07-28 22:45:21.450 ,1,1,0.,24.0,0.,24.0,3.,24.0,0.,24.0
1979-07-28 22:45:45.450 ,2,1,0.,24.0,1.,24.0,1.,24.0,0.,24.0
1979-07-28 22:46:09.450 ,6,1,0.,24.0,0.,24.0,0.,24.0,0.,24.0
1979-07-28 22:46:33.450 ,5,1,16.,24.0,0.,24.0,3.,24.0,0.,24.0
1979-07-28 22:46:57.450 ,1,1,0.,24.0,0.,24.0,1.,24.0,0.,24.0
1979-07-28 22:47:21.450 ,2,1,0.,24.0,0.,24.0,1.,24.0,0.,24.0
1979-07-28 22:47:45.450 ,6,1,0.,24.0,0.,24.0,2.,24.0,0.,24.0
1979-07-28 22:48:09.450 ,5,1,18.,24.0,0.,24.0,2.,24.0,0.,24.0
1979-07-28 22:48:33.450 ,1,1,1.,24.0,0.,24.0,3.,24.0,0.,24.0
1979-07-28 22:48:57.450 ,2,1,1.,24.0,0.,24.0,1.,24.0,0.,24.0
1979-07-28 22:49:21.450 ,6,1,0.,24.0,0.,24.0,1.,24.0,0.,24.0
1979-07-28 22:49:45.450 ,5,1,22.,24.0,0.,24.0,4.,24.0,0.,24.0
1979-07-28 22:50:09.450 ,1,1,0.,24.0,0.,24.0,0.,24.0,0.,24.0
1979-07-28 22:50:33.450 ,2,1,0.,24.0,0.,24.0,4.,24.0,0.,24.0
1979-07-28 22:50:57.450 ,6,1,0.,24.0,0.,24.0,2.,24.0,0.,24.0
1979-07-28 22:51:21.450 ,5,1,18.,24.0,0.,24.0,4.,24.0,0.,24.0
1979-07-28 22:51:45.450 ,1,1,0.,24.0,0.,24.0,2.,24.0,0.,24.0
1979-07-28 22:52:09.450 ,2,1,0.,24.0,1.,24.0,3.,24.0,0.,24.0
1979-07-28 22:52:33.450 ,6,1,1.,24.0,0.,24.0,1.,24.0,0.,24.0
1979-07-28 22:52:57.450 ,5,1,16.,24.0,0.,24.0,1.,24.0,0.,24.0
1979-07-28 22:53:21.450 ,1,1,0.,24.0,0.,24.0,1.,24.0,0.,24.0
1979-07-28 22:53:45.450 ,0,0,0.,24.0,0.,24.0,2.,24.0,0.,24.0
1979-07-28 22:54:09.450 ,0,0,0.,24.0,0.,24.0,2.,24.0,0.,24.0
1979-07-28 22:54:33.450 ,5,1,13.,24.0,0.,24.0,6.,24.0,0.,24.0
1979-07-28 22:54:57.450 ,5,0,0.,24.0,0.,24.0,0.,24.0,0.,24.0
1979-07-28 22:55:21.450 ,4,1,0.,24.0,0.,24.0,1.,24.0,0.,24.0
1979-07-28 22:55:45.450 ,4,0,0.,24.0,0.,24.0,0.,24.0,0.,24.0
1979-07-28 22:56:09.450 ,3,1,0.,24.0,0.,24.0,0.,24.0,0.,24.0
1979-07-28 22:56:33.450 ,3,0,0.,24.0,0.,24.0,3.,24.0,0.,24.0
1979-07-28 22:56:57.450 ,2,1,0.,24.0,0.,24.0,0.,24.0,0.,24.0
1979-07-28 22:57:21.450 ,2,0,0.,24.0,0.,24.0,0.,24.0,0.,24.0
1979-07-28 22:57:45.450 ,1,1,0.,24.0,0.,24.0,2.,24.0,0.,24.0
1979-07-28 22:58:09.450 ,1,0,0.,24.0,0.,24.0,3.,24.0,0.,24.0
1979-07-28 22:58:33.450 ,0,1,0.,24.0,0.,24.0,2.,24.0,0.,24.0
1979-07-28 22:58:57.450 ,0,0,0.,24.0,0.,24.0,1.,24.0,0.,24.0
1979-07-28 22:59:21.450 ,0,1,0.,24.0,0.,24.0,1.,24.0,0.,24.0
1979-07-28 22:59:45.450 ,0,0,0.,24.0,0.,24.0,5.,24.0,0.,24.0
1979-07-28 23:00:09.450 ,1,1,1.,24.0,0.,24.0,1.,24.0,0.,24.0
1979-07-28 23:00:33.450 ,1,0,0.,24.0,0.,24.0,4.,24.0,0.,24.0
1979-07-28 23:00:57.450 ,2,1,1.,24.0,0.,24.0,1.,24.0,0.,24.0
1979-07-28 23:01:21.450 ,2,0,0.,24.0,0.,24.0,1.,24.0,0.,24.0
1979-07-28 23:01:45.450 ,0,0,0.,24.0,0.,24.0,1.,24.0,0.,24.0
1979-07-28 23:02:09.450 ,0,0,0.,24.0,0.,24.0,1.,24.0,0.,24.0
1979-07-28 23:02:33.450 ,4,1,0.,24.0,0.,24.0,2.,24.0,0.,24.0
1979-07-28 23:02:57.450 ,4,0,0.,24.0,0.,24.0,1.,24.0,0.,24.0
1979-07-28 23:03:21.450 ,5,1,0.,24.0,0.,24.0,2.,24.0,0.,24.0
1979-07-28 23:03:45.450 ,5,0,0.,24.0,0.,24.0,3.,24.0,0.,24.0
1979-07-28 23:04:09.450 ,6,1,0.,24.0,0.,24.0,1.,24.0,0.,24.0
1979-07-28 23:04:33.450 ,6,0,0.,24.0,0.,24.0,1.,24.0,0.,24.0
1979-07-28 23:04:57.450 ,7,1,3.,24.0,0.,24.0,3.,24.0,0.,24.0
1979-07-28 23:05:21.450 ,7,0,39.,24.0,0.,24.0,1.,24.0,0.,24.0
1979-07-28 23:05:45.450 ,7,1,40.,24.0,0.,24.0,2.,24.0,0.,24.0
1979-07-28 23:06:09.450 ,7,0,32.,24.0,0.,24.0,1.,24.0,0.,24.0
1979-07-28 23:06:33.450 ,6,1,27.,24.0,0.,24.0,1.,24.0,0.,24.0
1979-07-28 23:06:57.450 ,6,0,0.,24.0,0.,24.0,3.,24.0,0.,24.0
1979-07-28 23:08:09.450 ,0,0,0.,24.0,0.,24.0,1.,24.0,0.,24.0
1979-07-28 23:08:33.450 ,0,0,0.,24.0,0.,24.0,1.,24.0,0.,24.0
1979-07-28 23:08:57.450 ,3,1,0.,24.0,0.,24.0,1.,24.0,0.,24.0
1979-07-28 23:09:21.450 ,3,0,0.,24.0,0.,24.0,1.,24.0,0.,24.0
1979-07-28 23:09:45.450 ,2,1,0.,24.0,0.,24.0,1.,24.0,0.,24.0
1979-07-28 23:10:09.450 ,2,0,0.,24.0,0.,24.0,2.,24.0,0.,24.0
1979-07-28 23:10:33.450 ,1,1,0.,24.0,0.,24.0,0.,24.0,0.,24.0
1979-07-28 23:10:57.450 ,1,0,0.,24.0,0.,24.0,5.,24.0,0.,24.0
1979-07-28 23:11:21.450 ,0,1,0.,24.0,0.,24.0,2.,24.0,0.,24.0
1979-07-28 23:11:45.450 ,0,0,0.,24.0,1.,24.0,2.,24.0,0.,24.0
1979-07-28 23:12:09.450 ,0,1,0.,24.0,0.,24.0,1.,24.0,0.,24.0
1979-07-28 23:12:33.450 ,0,0,0.,24.0,0.,24.0,1.,24.0,0.,24.0
1979-07-28 23:12:57.450 ,0,0,,0,,0,,0,,0
1979-07-28 23:13:21.450 ,0,0,,0,,0,,0,,0
1979-07-28 23:14:20.850 ,0,0,0.,24.0,0.,24.0,2.,24.0,0.,24.0
1979-07-28 23:14:33.450 ,3,1,0.,24.0,0.,24.0,1.,24.0,0.,24.0
1979-07-28 23:14:57.450 ,3,0,0.,24.0,0.,24.0,1.,24.0,0.,24.0
1979-07-28 23:15:21.450 ,4,1,0.,24.0,0.,24.0,2.,24.0,0.,24.0
1979-07-28 23:15:45.450 ,0,0,,0,,0,,0,,0
1979-07-28 23:16:13.050 ,5,1,1.,24.0,0.,24.0,3.,24.0,0.,24.0
1979-07-28 23:16:33.450 ,5,0,0.,24.0,0.,24.0,1.,24.0,0.,24.0
1979-07-28 23:16:57.450 ,6,1,0.,24.0,0.,24.0,3.,24.0,0.,24.0
1979-07-28 23:17:21.450 ,6,0,0.,24.0,0.,24.0,0.,24.0,0.,24.0
1979-07-28 23:17:45.450 ,7,1,4.,24.0,0.,24.0,4.,24.0,0.,24.0
1979-07-28 23:18:09.450 ,7,0,,0,,0,,0,,0
1979-07-28 23:18:09.450 ,7,0,,0,,0,,0,,0
1979-07-28 23:18:33.450 ,7,1,31.,24.0,0.,24.0,2.,24.0,0.,24.0
1979-07-28 23:18:57.450 ,7,0,33.,24.0,0.,24.0,1.,24.0,0.,24.0
1979-07-28 23:19:21.450 ,6,1,16.,24.0,0.,24.0,0.,24.0,0.,24.0
1979-07-28 23:19:45.450 ,6,0,0.,24.0,0.,24.0,3.,24.0,0.,24.0
1979-07-28 23:20:09.450 ,5,1,0.,24.0,0.,24.0,3.,24.0,0.,24.0
1979-07-28 23:20:33.450 ,5,0,0.,24.0,0.,24.0,4.,24.0,0.,24.0
1979-07-28 23:20:57.450 ,4,1,0.,24.0,0.,24.0,2.,24.0,0.,24.0
1979-07-28 23:21:21.450 ,4,0,0.,24.0,0.,24.0,3.,24.0,0.,24.0
1979-07-28 23:21:45.450 ,3,1,0.,24.0,0.,24.0,1.,24.0,0.,24.0
1979-07-28 23:22:09.450 ,3,0,0.,24.0,0.,24.0,0.,24.0,0.,24.0
1979-07-28 23:22:33.450 ,2,1,0.,24.0,0.,24.0,0.,24.0,0.,24.0
1979-07-28 23:22:57.450 ,2,0,0.,24.0,0.,24.0,1.,24.0,0.,24.0
1979-07-28 23:23:21.450 ,1,1,0.,24.0,0.,24.0,1.,24.0,0.,24.0
1979-07-28 23:23:45.450 ,1,0,0.,24.0,0.,24.0,0.,24.0,0.,24.0
1979-07-28 23:24:09.450 ,0,1,0.,24.0,1.,24.0,1.,24.0,0.,24.0
1979-07-28 23:24:33.450 ,0,0,0.,24.0,0.,24.0,0.,24.0,0.,24.0
1979-07-28 23:24:57.450 ,0,1,0.,24.0,0.,24.0,3.,24.0,0.,24.0
1979-07-28 23:25:21.450 ,0,0,0.,24.0,1.,24.0,3.,24.0,0.,24.0
1979-07-28 23:25:45.450 ,1,1,0.,24.0,0.,24.0,0.,24.0,0.,24.0
1979-07-28 23:26:09.450 ,1,0,0.,24.0,0.,24.0,2.,24.0,0.,24.0
1979-07-28 23:26:33.450 ,2,1,0.,24.0,0.,24.0,6.,24.0,0.,24.0
1979-07-28 23:26:57.450 ,2,0,0.,24.0,0.,24.0,1.,24.0,0.,24.0
1979-07-28 23:27:21.450 ,3,1,0.,24.0,0.,24.0,4.,24.0,0.,24.0
1979-07-28 23:27:45.450 ,3,0,0.,24.0,0.,24.0,2.,24.0,0.,24.0
1979-07-28 23:28:09.450 ,4,1,0.,24.0,0.,24.0,2.,24.0,0.,24.0
1979-07-28 23:28:33.450 ,4,0,0.,24.0,0.,24.0,1.,24.0,0.,24.0
1979-07-28 23:28:57.450 ,5,1,0.,24.0,0.,24.0,1.,24.0,0.,24.0
1979-07-28 23:29:21.450 ,5,0,0.,24.0,0.,24.0,1.,24.0,0.,24.0
1979-07-28 23:29:45.450 ,6,1,0.,24.0,0.,24.0,3.,24.0,0.,24.0
1979-07-28 23:30:09.450 ,6,0,0.,24.0,0.,24.0,1.,24.0,0.,24.0
1979-07-28 23:30:33.450 ,7,0,6.,24.0,0.,24.0,1.,24.0,0.,24.0
1979-07-28 23:30:57.450 ,7,0,33.,24.0,0.,24.0,2.,24.0,0.,24.0
1979-07-28 23:31:21.450 ,5,1,12.,24.0,0.,24.0,2.,24.0,0.,24.0
1979-07-28 23:31:45.450 ,1,1,0.,24.0,0.,24.0,1.,24.0,0.,24.0
1979-07-28 23:32:09.450 ,2,1,0.,24.0,0.,24.0,4.,24.0,0.,24.0
1979-07-28 23:32:33.450 ,6,1,0.,24.0,0.,24.0,2.,24.0,0.,24.0
1979-07-28 23:32:57.450 ,5,1,11.,24.0,0.,24.0,1.,24.0,0.,24.0
1979-07-28 23:33:21.450 ,1,1,0.,24.0,0.,24.0,2.,24.0,0.,24.0
1979-07-28 23:33:45.450 ,2,1,0.,24.0,0.,24.0,3.,24.0,0.,24.0
1979-07-28 23:34:09.450 ,6,1,0.,24.0,0.,24.0,5.,24.0,0.,24.0
1979-07-28 23:34:33.450 ,5,1,,0,,0,,0,,0
1979-07-28 23:34:57.450 ,1,1,0.,24.0,0.,24.0,2.,24.0,0.,24.0
1979-07-28 23:35:21.450 ,2,1,0.,24.0,0.,24.0,3.,24.0,0.,24.0
1979-07-28 23:35:45.450 ,6,1,0.,24.0,0.,24.0,2.,24.0,0.,24.0
1979-07-28 23:36:09.450 ,5,1,17.,24.0,0.,24.0,4.,24.0,0.,24.0
1979-07-28 23:36:33.450 ,1,1,0.,24.0,0.,24.0,1.,24.0,0.,24.0
1979-07-28 23:36:57.450 ,2,1,0.,24.0,0.,24.0,5.,24.0,0.,24.0